Regional Weather Roundup
Issued by NWS

Home | Current Version | Previous Version | Text Only | Print | Product List | Glossary On
Versions: 1 2 3 4 5 6 7 8 9 10 11 12 13 14 15 16 17 18 19 20 21 22 23 24 25 26 27
000
ASUS45 KREV 251010
RWRNV
NEVADA REGIONAL WEATHER ROUNDUP
NATIONAL WEATHER SERVICE RENO NV
300 AM PDT SUN JUN 25 2017

NOTE: "FAIR" INDICATES FEW OR NO CLOUDS BELOW 12,000 FEET WITH NO
SIGNIFICANT WEATHER AND/OR OBSTRUCTIONS TO VISIBILITY.

NVZ001-003-004-251100-
WESTERN NEVADA

CITY           SKY/WX    TMP DP  RH WIND       PRES   REMARKS
RENO           PTCLDY    74  49  41 CALM      30.12S
CARSON CITY    FAIR      68  41  37 CALM      30.16S
MINDEN         FAIR      57  45  62 E5        30.16S
FALLON         MOCLDY    66  39  37 CALM      30.07S
LOVELOCK       PTCLDY    69  29  22 CALM      30.08R
HAWTHORNE      CLEAR     73  34  23 CALM      30.08S
$$

NVZ002-CAZ072-073-251100-
NORTHERN AND CENTRAL SIERRA

CITY           SKY/WX    TMP DP  RH WIND       PRES   REMARKS
S. LAKE TAHOE  PTCLDY    56  44  64 CALM      30.27S
TRUCKEE        PTCLDY    54  50  87 E3        30.25F
SQUAW VLY 8000   N/A     57  39  51 NW1         N/A
SUSANVILLE     CLEAR     63  46  55 SW5       30.10S
MAMMOTH LAKES  FAIR      55  35  47 NW5       30.33F
BRIDGEPORT     FAIR      49  40  71 CALM      30.31F
$$

NVZ030-031-036-251100-
NORTHERN NEVADA

CITY           SKY/WX    TMP DP  RH WIND       PRES   REMARKS
ELKO           PTCLDY    52  41  66 S3        30.22R
WINNEMUCCA     CLEAR     70  36  28 NE14      30.14S
WENDOVER         N/A     72  31  22 SW3       30.16S
$$

NVZ035-037-251100-
CENTRAL NEVADA

CITY           SKY/WX    TMP DP  RH WIND       PRES   REMARKS
ELY            PTCLDY    48  23  37 S9        30.29R
EUREKA           N/A     51  27  39 S7        30.25S
$$

NVZ013-014-251100-
SOUTH CENTRAL NEVADA

CITY           SKY/WX    TMP DP  RH WIND       PRES   REMARKS
TONOPAH        PTCLDY    73  24  16 N15       30.16S
$$

NVZ017-020-022-251100-
SOUTHERN NEVADA

CITY           SKY/WX    TMP DP  RH WIND       PRES   REMARKS
LAS VEGAS      MOCLDY    96  30   9 CALM      29.83R
N. LAS VEGAS   MOCLDY    95  28   9 SW7       29.82R
NELLIS AFB     MOCLDY    92  25   9 NE7       29.79S
HENDERSON      MOCLDY    92  38  15 S5        29.87R
MERCURY        CLOUDY    88  33  14 N3        29.93F
$$




USA.gov is the U.S. government's official web portal to all federal, state and local government web resources and services.